[[{"header":{"parameterUnit":"m.s-1","parameterCategory":1,"la1":30.2991,"la2":30.254,"lo1":-89.0895,"lo2":-89.0444,"dy":0.0017,"dx":0.0017,"nx":28,"ny":28,"refTime":"2025-05-15T03:00:00:Z","depth":0,"parameterNumber":2,"parameterNumberName":"U-component_of_WINDS"},"data":[0,0,0,0,0,0,0,0,0,0,0,0,0,0,0,0,0,0,0,0,0,0,0,0,0,0,0,0,0,0,0,0,0,0,0,0,0,0,0,0,0,0,0,0,0,0,0,0,0,0,0,0,0,0,0,0,0,0,1.6603,1.6603,0,1.6602,1.6602,1.6602,1.6562,1.6561,1.656,1.6559,1.6557,1.6558,1.6559,0,0,0,0,0,0,0,0,0,0,0,0,0,1.6567,1.6568,1.6603,1.6603,1.6603,1.6602,1.6602,1.6602,1.6562,1.6561,1.656,1.6558,1.6557,1.6558,1.6559,0,0,0,0,0,0,0,0,0,0,0,0,0,1.6576,1.6568,1.6603,1.6583,1.6581,1.6602,1.6602,1.6602,1.6562,1.6561,1.6559,1.6558,1.6557,1.6558,1.6559,1.6599,0,0,1.6564,1.6564,0,0,0,0,0,0,0,0,1.6576,1.6578,1.6586,1.6584,1.6582,1.6581,1.6589,1.6601,1.6563,1.657,1.6559,1.6557,1.6566,1.6567,1.657,1.6599,1.6599,1.6564,1.6565,1.6565,1.6565,0,0,0,0,0,0,0,1.6575,1.6577,1.6603,1.6586,1.6584,1.6573,1.6573,1.6591,1.6577,1.6569,1.6566,1.6566,1.6565,1.6569,1.657,1.6599,1.6564,1.6565,1.6566,1.6566,1.6656,1.6658,0,0,0,0,0,0,1.6578,1.6577,1.6603,1.6603,1.6575,1.6575,1.6574,1.6583,1.6576,1.6574,1.6568,1.6564,1.6567,1.6568,1.6569,1.6613,1.6565,1.6566,1.6567,1.6655,1.6657,1.6658,0,0,0,0,0,0,1.6577,1.658,1.6603,1.6589,1.6591,1.6577,1.6587,1.6584,1.6587,1.6575,1.6572,1.6574,1.6566,1.6567,1.6591,1.6612,1.6567,1.6568,1.6653,1.6655,1.6657,1.6701,0,0,0,0,0,0,1.6576,1.658,1.6596,1.659,1.6592,1.6626,1.6588,1.6585,1.659,1.6586,1.6581,1.6579,1.6565,1.6589,1.6592,1.6613,1.6569,1.6651,1.6654,1.6657,1.6698,1.6705,1.6711,0,0,0,0,0,1.6575,1.6609,1.6597,1.6601,1.6612,1.6627,1.6628,1.6612,1.6592,1.6607,1.6598,1.6579,1.661,1.6592,1.6595,1.6617,1.665,1.6653,1.6657,1.6695,1.6704,1.6711,0,0,0,0,0,0,1.662,1.6608,1.6595,1.6628,1.6629,1.662,1.6639,1.6622,1.6628,1.6624,1.6603,1.6602,1.6628,1.6625,1.6606,1.6653,1.6626,1.663,1.6654,1.6662,1.6668,1.6668,1.6571,0,0,0,0,0,1.6633,1.6647,1.6636,1.6667,1.6668,1.6653,1.6659,1.6646,1.6646,1.6646,1.664,1.664,1.6649,1.6655,1.6664,1.6697,1.6694,1.6714,1.672,1.6725,1.6729,1.6743,1.6751,1.667,1.667,1.667,0,0,1.6662,1.6657,1.6668,1.6676,1.6674,1.6688,1.6654,1.667,1.6679,1.6648,1.6669,1.6665,1.6663,1.6691,1.6703,1.6689,1.675,1.673,1.6734,1.6735,1.6748,1.6755,1.6762,1.6672,1.6672,1.6671,0,0,1.672,1.6719,1.6743,1.6741,1.674,1.6729,1.6735,1.6728,1.6724,1.6745,1.672,1.6731,1.6748,1.6747,1.6748,1.6802,1.6783,1.6806,1.6839,1.6853,1.6859,1.6865,1.6881,1.6888,1.681,1.681,1.681,0,1.6755,1.6775,1.6757,1.6774,1.6777,1.6749,1.6771,1.6771,1.6772,1.6774,1.6758,1.6777,1.6774,1.68,1.6813,1.6816,1.682,1.6806,1.686,1.6865,1.687,1.6886,1.6892,1.6812,1.6812,1.6812,1.6811,0,1.6817,1.6831,1.685,1.685,1.6856,1.6876,1.6859,1.6866,1.6852,1.6843,1.6863,1.6858,1.6863,1.6868,1.6856,1.6891,1.6882,1.6864,1.6836,1.6881,1.6895,1.6901,1.6816,1.6815,1.6814,1.6814,0,0,1.6905,1.6892,1.69,1.6898,1.6892,1.6902,1.6919,1.6924,1.6929,1.693,1.6943,1.6956,1.6938,1.694,1.6927,1.6939,1.6978,1.6919,1.6918,1.6928,1.7014,1.7026,1.7034,1.6966,1.6967,1.6968,1.7013,0,1.6958,1.6987,1.697,1.7001,1.7011,1.6983,1.6998,1.6995,1.6987,1.6994,1.6984,1.6993,1.697,1.697,1.6982,1.6971,1.6995,1.6968,1.6976,1.6976,1.6975,1.7042,1.7055,1.7098,1.7019,1.702,1.7021,0,1.7026,1.7028,1.706,1.7049,1.7053,1.7066,1.7067,1.7075,1.707,1.7062,1.7063,1.7045,1.706,1.7033,1.7051,1.7033,1.7035,1.703,1.7031,1.703,1.7,1.704,1.7112,1.7118,1.703,1.7029,1.7028,0,1.7082,1.7094,1.7113,1.7113,1.7102,1.7111,1.7107,1.7101,1.7103,1.7104,1.7105,1.7108,1.7109,1.711,1.7093,1.7076,1.7112,1.7085,1.7104,1.7105,1.7112,1.7112,1.7184,1.7117,1.7117,1.7117,1.7117,0,1.7143,1.7163,1.7138,1.715,1.717,1.7149,1.717,1.7162,1.7157,1.7165,1.7142,1.715,1.7128,1.7133,1.712,1.7135,1.7136,1.7129,1.7125,1.713,1.7131,1.713,1.7126,1.7119,1.7118,1.7118,1.7118,0,1.721,1.7194,1.7213,1.72,1.7197,1.7212,1.72,1.721,1.7199,1.721,1.7211,1.7194,1.7199,1.7182,1.7185,1.7175,1.7197,1.7189,1.7198,1.7195,1.7215,1.7212,1.7287,1.7294,1.7225,1.7226,1.7227,0,1.7249,1.7263,1.7251,1.7254,1.7251,1.7258,1.726,1.7239,1.7242,1.7236,1.7246,1.7249,1.725,1.7259,1.7246,1.7247,1.7238,1.7264,1.7238,1.7241,1.7235,1.7233,1.7233,1.7269,1.7269,1.727,1.7271,0,1.7319,1.7309,1.7313,1.7313,1.7316,1.7315,1.7313,1.7317,1.7295,1.7299,1.7303,1.7304,1.7305,1.7308,1.7306,1.73,1.7281,1.7279,1.7283,1.7288,1.7291,1.7287,1.721,1.7277,1.7277,1.7276,1.7276,1.7275,1.7371,1.7381,1.7373,1.7377,1.7372,1.737,1.7377,1.7366,1.7369,1.7369,1.7356,1.7362,1.7355,1.735,1.7346,1.7349,1.7337,1.7344,1.7345,1.7346,1.7349,1.7292,1.7349,1.7349,1.7349,1.7349,1.7348,0,1.7437,1.743,1.7434,1.743,1.7432,1.7414,1.741,1.7413,1.7418,1.7413,1.7414,1.7417,1.7419,1.7405,1.7404,1.741,1.7401,1.741,1.7409,1.7407,1.7361,1.7356,1.7417,1.7417,1.7417,1.7417,1.7417,1.7417,1.7472,1.7486,1.7476,1.7487,1.748,1.7485,1.7484,1.748,1.7475,1.748,1.7481,1.7472,1.7462,1.746,1.746,1.7456,1.7456,1.7468,1.746,1.7417,1.7411,1.7404,1.7399,1.7468,1.7468,1.7505,1.7506,1.7506]},{"header":{"parameterUnit":"m.s-1","parameterCategory":1,"la1":30.2991,"la2":30.254,"lo1":-89.0895,"lo2":-89.0444,"dy":0.0017,"dx":0.0017,"nx":28,"ny":28,"refTime":"2025-05-15T03:00:00:Z","depth":0,"parameterNumber":3,"parameterNumberName":"V-component_of_WINDS"},"data":[0,0,0,0,0,0,0,0,0,0,0,0,0,0,0,0,0,0,0,0,0,0,0,0,0,0,0,0,0,0,0,0,0,0,0,0,0,0,0,0,0,0,0,0,0,0,0,0,0,0,0,0,0,0,0,0,0,0,6.2692,6.2693,0,6.277,6.2771,6.2772,6.2715,6.2712,6.271,6.2707,6.2783,6.2787,6.2791,0,0,0,0,0,0,0,0,0,0,0,0,0,6.2487,6.2491,6.2692,6.2693,6.2694,6.277,6.2771,6.2772,6.2715,6.2712,6.2709,6.2706,6.2781,6.2786,6.2792,0,0,0,0,0,0,0,0,0,0,0,0,0,6.2571,6.2492,6.2692,6.2675,6.2674,6.277,6.2771,6.2772,6.2716,6.2712,6.2708,6.2705,6.278,6.2786,6.2792,6.2908,0,0,6.2812,6.2815,0,0,0,0,0,0,0,0,6.2566,6.2579,6.2676,6.2676,6.2675,6.2729,6.2726,6.2818,6.2717,6.27,6.2707,6.2703,6.2768,6.2775,6.2798,6.2911,6.2915,6.2813,6.2817,6.282,6.2821,0,0,0,0,0,0,0,6.2561,6.2575,6.2723,6.2678,6.2677,6.2661,6.2669,6.2743,6.2754,6.2701,6.2697,6.2707,6.2767,6.2791,6.2799,6.2916,6.2813,6.2818,6.2823,6.2825,6.3124,6.3128,0,0,0,0,0,0,6.2557,6.2571,6.272,6.2725,6.2611,6.2668,6.2676,6.2715,6.2753,6.2755,6.271,6.2704,6.2782,6.2791,6.2801,6.2936,6.282,6.2826,6.2829,6.312,6.3125,6.3129,0,0,0,0,0,0,6.2553,6.2571,6.2717,6.2647,6.2664,6.2675,6.2719,6.2719,6.2744,6.276,6.2761,6.2734,6.278,6.2792,6.2881,6.2938,6.2829,6.2835,6.3115,6.3121,6.3127,6.3209,0,0,0,0,0,0,6.2547,6.257,6.2616,6.2648,6.2668,6.2798,6.2723,6.2723,6.2756,6.2748,6.2783,6.2785,6.2778,6.2872,6.2888,6.2945,6.284,6.311,6.3118,6.3125,6.3202,6.3217,6.3231,0,0,0,0,0,6.254,6.2636,6.2619,6.2637,6.2726,6.2801,6.2812,6.2804,6.2761,6.2805,6.2815,6.2783,6.293,6.2881,6.2899,6.2959,6.3106,6.3116,6.3124,6.3195,6.3214,6.3231,0,0,0,0,0,0,6.2609,6.264,6.2621,6.273,6.2764,6.2792,6.2848,6.2825,6.287,6.2862,6.2847,6.2855,6.2948,6.2963,6.2908,6.3071,6.3011,6.3024,6.3058,6.3077,6.3091,6.3085,6.2845,0,0,0,0,0,6.2637,6.2698,6.272,6.2814,6.2832,6.2837,6.287,6.286,6.2894,6.2907,6.2923,6.2956,6.3008,6.3044,6.3093,6.3203,6.3208,6.3253,6.3268,6.328,6.3291,6.3347,6.3366,6.3159,6.3159,6.3159,0,0,6.2695,6.2719,6.2759,6.2829,6.2854,6.2914,6.285,6.2917,6.2961,6.2917,6.3002,6.3015,6.3049,6.3149,6.3193,6.3163,6.3349,6.3291,6.3301,6.3306,6.3358,6.3378,6.3395,6.3165,6.3164,6.3163,0,0,6.2832,6.2858,6.2937,6.2963,6.3002,6.3004,6.3023,6.3054,6.3061,6.3146,6.3113,6.3164,6.3257,6.3282,6.3307,6.345,6.3421,6.3466,6.3543,6.3598,6.3614,6.3628,6.3677,6.3695,6.3477,6.3477,6.3477,0,6.2899,6.2991,6.2981,6.305,6.3081,6.3044,6.3123,6.3148,6.32,6.3221,6.3187,6.33,6.3321,6.3424,6.3459,6.3481,6.35,6.3462,6.3613,6.3627,6.364,6.3686,6.3705,6.3482,6.3482,6.3481,6.3481,0,6.307,6.3134,6.3193,6.3245,6.3282,6.3356,6.3355,6.3393,6.3379,6.3384,6.3469,6.3493,6.3545,6.3569,6.3557,6.367,6.365,6.3615,6.3554,6.3665,6.3708,6.3726,6.349,6.3488,6.3486,6.3485,0,0,6.3254,6.3297,6.3319,6.3341,6.3379,6.3427,6.3498,6.355,6.3582,6.3618,6.3675,6.3753,6.372,6.3748,6.3737,6.3786,6.3894,6.3744,6.3744,6.3769,6.4017,6.4042,6.4063,6.3875,6.3879,6.3882,6.4013,0,6.3391,6.3516,6.3507,6.3623,6.368,6.3645,6.3705,6.3734,6.374,6.3787,6.3793,6.3847,6.3801,6.3817,6.3864,6.3871,6.3943,6.3862,6.3926,6.3928,6.3917,6.4086,6.4113,6.4236,6.403,6.4033,6.4035,0,6.3568,6.3611,6.3733,6.376,6.3783,6.3839,6.3884,6.3931,6.3961,6.3961,6.3992,6.3972,6.404,6.3978,6.407,6.4015,6.4041,6.4048,6.4052,6.4057,6.3988,6.4093,6.4276,6.4293,6.4062,6.406,6.4058,0,6.3687,6.3775,6.3858,6.3878,6.3912,6.3951,6.3967,6.3994,6.4025,6.4064,6.4083,6.4129,6.4154,6.4189,6.4181,6.4138,6.4274,6.4213,6.4275,6.4275,6.4305,6.4303,6.4492,6.4324,6.4324,6.4323,6.4323,0,6.384,6.3916,6.3912,6.3963,6.4046,6.4034,6.4115,6.4126,6.4149,6.42,6.4172,6.422,6.4207,6.4254,6.4248,6.4324,6.4336,6.4336,6.4333,6.4338,6.4338,6.4354,6.4344,6.4328,6.4327,6.4326,6.4325,0,6.3987,6.3988,6.4076,6.4101,6.4108,6.4168,6.4187,6.4234,6.4237,6.4302,6.4316,6.432,6.4373,6.4369,6.4429,6.4425,6.4518,6.4506,6.4508,6.4505,6.4566,6.456,6.4771,6.4797,6.4614,6.4616,6.4617,0,6.4084,6.4141,6.4171,6.4204,6.4222,6.4275,6.4306,6.4295,6.4328,6.4366,6.4407,6.4458,6.4498,6.4584,6.4591,6.4636,6.4624,6.4695,6.463,6.4632,6.4622,6.4618,6.4623,6.4707,6.4709,6.4711,6.4712,0,6.4256,6.4253,6.4299,6.4346,6.4383,6.4419,6.4451,6.4479,6.4471,6.4509,6.4563,6.4594,6.4655,6.4705,6.4747,6.476,6.4734,6.4732,6.4749,6.4753,6.4751,6.4751,6.4541,6.4728,6.4726,6.4725,6.4724,6.4723,6.4379,6.4427,6.4455,6.4507,6.453,6.4561,6.4605,6.4613,6.4659,6.4708,6.4698,6.4758,6.4783,6.4838,6.4855,6.49,6.4875,6.4899,6.4905,6.4911,6.4917,6.4745,6.4908,6.4908,6.4907,6.4907,6.4907,0,6.4548,6.4563,6.4611,6.4657,6.4697,6.467,6.4704,6.4738,6.4792,6.4819,6.4858,6.4919,6.4966,6.4976,6.5021,6.5055,6.5044,6.5067,6.5063,6.5066,6.4938,6.4919,6.5075,6.5075,6.5075,6.5075,6.5075,6.5075,6.464,6.4719,6.4719,6.4807,6.4822,6.4881,6.4902,6.4929,6.495,6.5019,6.5058,6.5065,6.5084,6.5129,6.517,6.5172,6.5188,6.5216,6.5212,6.5093,6.5076,6.506,6.5041,6.522,6.522,6.5336,6.5337,6.5338]}]]